Location: Nianha
(10.8000°N, 4.6333°W)
Time: 06:24:59
(UTC+00:00)

PSLV R/B - Pass Details

Date: 14 November 2019
Orbit: 504 x 580 km, 97.8° (Epoch: 28 January)

Event Time Altitude Azimuth Distance (km) Brightness Sun altitude
Rises 05:11:29 0° 4° (N) 2,692 7.2 -15.4°
Reaches altitude 10° 05:13:36 10° 0° (N) 1,813 6.3 -14.9°
Maximum altitude 05:17:27 55° 282° (WNW) 667 3.9 -14.0°
Drops below altitude 10° 05:21:23 10° 204° (SSW) 1,855 6.4 -13.1°
Sets 05:23:34 0° 200° (SSW) 2,761 7.4 -12.6°
